EHI
4 9 15 8 0 0 0 0 0 0 0 0 0 0 0 0 0 0 0 0 0 0 0 0 0 0 0 0 0 0 0 0 0 0 0 0 0 0 0 0 0 0 0
3 8 13 8 1 0 0 0 0 0 0 0 0 0 0 0 0 0 0 0 0 0 0 0 0 0 0 0 0 0 0 0 0 0 0 0 0 0 0 0 0 0 0
1 4 7 6 1 0 0 0 0 0 0 0 0 0 0 0 0 0 0 0 0 0 0 0 0 0 0 0 0 0 0 0 0 0 0 0 0 0 0 0 0 0 0
0 1 2 3 1 0 0 0 0 0 0 0 0 0 0 0 0 0 0 0 0 0 0 0 0 0 0 0 0 0 0 0 0 0 0 0 0 0 0 0 0 0 0
0 0 1 2 1 0 0 0 0 0 0 0 0 0 0 0 0 0 0 0 0 0 0 0 0 0 0 0 0 0 0 0 0 0 0 0 2 2 1 0 0 0 0
1 1 2 3 2 0 0 0 0 0 0 0 0 0 0 0 0 0 0 0 0 0 0 0 0 0 0 0 0 0 0 0 0 0 0 4 13 16 10 4 1 0 0
7 5 5 6 4 0 0 0 0 0 0 0 0 0 0 0 0 0 0 0 0 0 0 0 0 0 0 0 0 0 0 0 0 0 0 12 36 47 33 17 8 3 1
20 14 9 9 6 1 0 0 0 0 0 0 0 0 0 0 0 0 0 0 0 0 0 0 0 0 1 2 2 2 1 0 0 0 0 21 60 79 66 43 24 11 6
36 25 10 6 5 2 0 0 0 1 1 1 0 0 0 0 0 0 2 2 2 1 0 0 0 0 2 4 6 6 4 1 0 0 1 26 71 95 89 71 47 26 17
43 31 13 5 5 2 0 0 2 4 4 2 1 1 1 1 2 7 13 13 9 7 7 7 6 5 5 6 9 11 7 2 0 0 2 27 72 98 97 87 68 45 30
36 28 17 16 14 5 5 8 9 9 10 7 6 8 9 5 4 14 27 29 28 28 30 32 28 21 14 9 13 19 14 4 0 0 4 31 73 97 99 94 81 59 43
23 15 19 38 37 15 17 29 21 19 27 22 17 28 31 17 6 11 29 44 48 48 53 57 51 35 19 10 16 31 27 11 2 1 10 41 80 98 100 96 86 67 50
13 9 22 55 58 31 34 49 37 37 52 48 39 52 58 39 17 12 29 52 57 56 59 61 56 40 20 10 15 32 36 21 7 6 21 56 88 99 99 95 85 65 47
17 15 33 67 72 53 51 59 53 54 67 68 66 73 76 63 38 27 39 53 55 57 60 60 56 46 32 21 17 24 29 24 15 19 38 68 89 96 94 89 78 56 39
36 34 53 81 87 77 70 68 62 65 71 77 82 87 85 76 56 45 52 57 52 54 61 63 58 54 49 38 25 20 21 22 24 34 55 75 86 89 88 84 73 53 37
61 62 75 92 98 93 86 78 68 65 71 79 85 87 82 75 61 50 52 57 52 51 57 59 58 57 55 46 32 24 22 24 29 42 59 74 82 83 83 82 75 60 46
81 84 89 95 98 98 93 84 68 61 68 75 74 73 70 63 51 39 36 42 47 48 50 53 54 55 52 46 39 33 32 32 33 39 50 63 74 78 81 82 78 68 58
91 94 95 94 97 99 94 82 66 62 67 63 53 54 56 46 31 22 18 22 29 30 32 37 44 48 46 41 39 39 41 42 37 36 42 53 64 71 75 80 79 73 67
94 96 96 95 95 96 91 77 63 62 60 44 35 42 44 28 14 9 9 10 11 12 12 16 26 34 32 29 28 31 41 45 41 38 40 48 56 59 63 72 78 76 71
92 92 92 92 91 89 81 67 58 52 41 25 24 36 32 14 5 3 3 3 3 2 3 5 10 15 17 16 13 17 28 36 41 43 43 47 52 51 53 63 74 75 73
82 81 82 85 84 79 69 59 54 46 29 15 20 30 22 7 2 1 1 0 0 0 1 1 2 3 6 6 6 7 13 21 30 40 48 53 55 54 52 58 68 74 75
65 65 68 73 72 66 59 52 50 46 29 16 23 30 21 10 5 3 2 1 0 0 0 0 0 0 1 1 1 2 3 7 12 23 38 51 58 62 60 57 63 72 76
46 49 55 60 58 56 52 47 47 46 33 25 33 41 35 22 12 8 5 3 1 0 0 0 0 0 0 0 0 0 1 1 2 7 16 28 44 60 64 59 58 66 72
29 37 49 56 57 57 55 53 54 50 41 41 51 57 51 36 23 19 14 9 5 2 1 1 1 0 0 0 0 0 1 1 1 1 2 8 22 41 54 56 55 61 68
19 29 45 57 63 65 65 67 68 63 56 58 67 71 64 51 41 36 31 25 17 8 3 2 1 0 0 0 0 0 1 1 1 0 0 2 8 20 35 49 56 61 65
16 25 40 55 64 69 72 74 74 72 67 67 73 76 71 62 56 49 44 39 29 15 5 3 2 1 0 0 0 0 0 0 1 0 0 1 3 9 25 44 58 63 62
Wind_Speed
19 18 18 15 13 13 14 15 15 14 13 12 12 11 11 11 11 12 11 11 11 10 10 10 9 8 8 8 8 9 9 9 9 9 10 11 10 9 8 7 5 10 12
21 19 19 16 14 14 14 15 15 14 13 13 12 11 11 11 11 11 10 10 10 10 9 9 8 8 8 8 8 7 7 6 5 6 8 9 10 8 7 7 8 9 11
21 19 17 16 15 14 14 14 14 14 13 12 11 11 10 10 10 9 9 9 9 9 8 8 7 7 7 7 7 6 5 4 3 3 6 6 9 9 7 8 10 10 10
20 18 16 17 15 15 14 14 14 13 13 12 11 10 10 9 9 9 8 8 7 7 7 7 6 6 6 6 5 5 4 3 3 5 6 5 8 11 9 7 7 7 8
18 16 18 18 16 15 14 13 13 13 12 11 11 10 9 9 8 8 7 7 6 6 6 6 6 6 6 5 5 5 4 4 6 8 8 3 7 12 11 8 6 6 6
18 17 18 17 16 14 13 13 12 12 11 11 10 9 9 8 8 7 7 6 6 6 6 6 6 6 6 6 6 6 6 6 7 8 8 4 9 13 13 10 7 6 6
18 18 18 17 16 14 13 12 11 11 10 10 9 9 8 8 7 7 7 7 7 7 7 7 7 7 8 8 8 8 8 9 8 8 7 3 10 15 14 12 9 8 8
20 19 17 18 16 15 14 13 12 11 10 10 9 9 9 8 8 8 8 9 9 9 9 9 9 9 10 10 11 11 11 11 10 11 9 5 14 17 16 15 12 11 10
20 19 16 15 14 15 14 13 13 12 11 10 10 10 10 10 10 10 11 11 11 11 11 11 11 11 11 11 12 12 13 14 10 8 10 4 16 19 18 16 14 13 12
20 19 16 16 14 13 13 14 14 13 12 12 11 11 11 12 12 14 13 14 14 14 14 14 14 13 13 13 13 14 14 13 11 11 8 6 18 19 19 17 15 14 14
16 17 17 17 15 14 14 15 15 14 13 12 11 13 12 9 11 12 18 18 18 17 16 16 15 14 13 14 16 16 14 8 11 10 9 11 18 20 19 17 16 15 14
12 15 14 16 15 13 12 12 10 11 11 10 9 11 9 8 7 10 10 19 20 20 19 17 16 14 12 9 14 18 9 12 12 10 8 13 19 20 19 17 17 16 15
9 10 14 13 12 10 6 10 7 6 7 11 10 8 7 5 5 6 3 7 11 14 11 11 12 9 9 8 7 6 11 11 8 9 8 15 19 20 19 18 17 17 16
10 9 12 13 10 6 4 5 5 4 5 5 6 7 5 3 3 3 3 2 3 4 6 5 5 9 10 9 8 7 10 9 8 5 4 13 17 17 18 18 17 17 17
10 9 9 11 10 6 2 1 3 2 3 3 4 3 3 2 2 2 2 2 4 3 2 3 4 4 4 5 6 7 8 9 9 7 4 13 17 18 18 19 18 18 18
13 11 10 11 11 8 5 3 2 2 2 1 2 2 2 2 1 2 3 3 4 4 4 3 5 4 4 4 6 7 8 8 7 5 4 9 17 20 20 20 19 20 20
14 11 10 11 12 10 8 7 5 5 3 2 3 3 3 2 0 1 3 3 3 3 4 4 5 5 5 6 7 8 7 7 8 7 7 5 8 17 20 21 21 21 21
13 12 11 11 13 10 6 5 3 3 3 2 2 2 4 2 1 1 3 3 2 3 3 4 5 4 4 4 5 6 6 6 9 9 8 7 6 8 15 22 22 21 22
8 9 8 5 10 9 6 3 2 1 2 1 1 3 4 3 2 2 2 3 3 3 3 5 3 2 4 4 5 6 7 7 8 10 10 10 9 9 8 14 23 23 23
8 8 7 7 9 8 6 3 1 1 2 1 2 4 4 1 2 3 3 3 4 4 3 3 5 5 4 5 8 7 5 7 7 8 11 10 10 12 11 10 11 16 23
8 8 7 7 8 5 3 2 2 2 1 1 1 5 4 1 2 1 3 3 4 3 4 5 4 6 5 4 5 6 6 8 8 8 9 9 10 11 10 10 9 8 10
10 9 6 6 4 4 3 1 1 1 0 0 1 3 3 2 0 3 2 3 4 4 5 5 4 4 5 5 4 6 6 6 6 8 7 8 10 8 9 11 9 9 8
8 6 4 4 2 2 3 0 0 0 1 1 2 2 3 2 1 2 2 3 3 4 4 4 4 5 5 5 4 4 4 5 6 6 7 6 6 7 7 6 8 9 11
9 7 4 4 2 1 1 2 2 2 3 2 2 2 3 3 4 3 3 4 3 3 4 5 3 4 5 6 5 4 6 7 6 6 7 7 7 6 6 7 6 6 8
10 8 7 5 3 3 2 3 3 5 5 4 2 1 2 4 5 6 5 4 3 4 5 4 4 5 4 5 5 6 7 6 7 7 9 7 6 5 5 5 4 3 3
10 10 10 10 9 9 7 6 5 5 6 7 6 5 3 4 4 6 6 4 4 4 4 4 5 6 5 6 5 6 6 6 6 6 7 8 7 6 5 3 2 1 1
Wind_Direction
119 129 132 128 126 126 130 134 135 134 134 132 129 125 120 116 112 108 106 108 110 111 110 107 103 99 95 92 90 88 86 87 89 93 96 97 98 98 96 93 109 107 106
123 130 132 131 131 132 133 135 136 136 136 135 134 132 128 124 119 116 115 115 116 117 115 111 105 103 101 100 100 99 98 100 109 119 125 120 112 106 97 73 68 112 116
123 131 135 134 135 136 137 138 139 140 139 139 139 138 135 132 128 126 125 124 123 123 123 122 118 114 112 111 112 113 116 126 154 172 186 165 131 123 108 91 96 114 121
128 138 139 139 140 140 141 142 143 143 143 143 144 144 144 142 140 139 136 135 134 133 133 134 133 131 131 132 134 138 149 181 227 242 231 211 147 134 129 116 116 124 130
131 136 136 146 144 145 145 145 146 147 147 148 149 151 152 152 153 152 151 151 152 151 152 153 152 150 152 155 160 169 185 214 246 259 264 215 128 144 142 140 141 145 148
133 136 141 148 147 148 149 150 151 151 152 154 156 159 161 165 169 170 171 174 177 177 178 180 180 178 179 182 186 195 208 226 251 253 255 202 138 154 152 156 167 175 177
138 135 144 150 151 153 154 156 157 158 160 163 166 170 175 180 187 191 194 197 201 204 205 206 206 204 202 203 205 209 217 229 245 269 273 224 149 159 161 165 178 193 198
136 135 144 152 155 158 161 164 166 168 170 174 179 184 191 198 205 211 214 215 217 220 222 224 224 222 220 217 217 218 222 233 238 244 251 234 154 163 168 171 180 196 208
136 134 149 156 161 165 169 172 175 177 181 186 192 198 205 213 219 224 226 226 226 226 227 230 231 232 231 229 227 226 227 232 253 269 264 216 163 170 173 177 184 197 208
136 142 155 159 163 169 175 181 183 185 189 195 202 209 215 223 229 231 231 227 229 229 228 230 233 234 234 234 233 232 233 236 242 253 257 231 174 176 179 183 189 198 208
143 146 162 160 165 176 179 179 184 190 196 200 209 216 221 230 232 226 226 225 223 225 226 227 231 234 235 236 236 235 233 234 238 238 241 222 183 182 184 187 193 202 210
148 156 165 160 165 183 184 160 182 190 191 203 210 202 208 226 248 256 222 215 218 221 224 226 230 234 234 240 234 226 226 229 241 244 234 207 185 186 187 190 197 205 213
163 173 158 149 158 184 162 159 185 190 173 195 214 200 199 222 245 259 239 206 215 219 223 226 226 230 232 232 243 215 215 228 227 236 234 195 185 188 191 194 200 208 215
177 186 161 146 156 182 164 170 172 181 167 190 185 202 190 205 257 285 301 301 213 214 211 229 212 218 225 237 238 228 220 226 236 231 206 184 186 192 196 199 205 211 217
178 186 157 144 146 154 151 256 187 171 166 167 153 175 162 191 239 290 308 312 299 293 271 240 259 259 248 249 252 252 250 246 246 240 199 187 190 196 203 206 209 216 220
175 183 160 151 146 152 156 182 280 244 164 192 132 133 141 182 212 270 280 274 273 280 291 288 279 274 268 261 259 260 265 270 268 263 241 199 197 201 205 209 211 217 222
175 173 160 162 154 161 170 183 197 215 180 151 144 161 167 166 132 287 278 268 261 268 267 262 264 257 256 254 253 254 254 258 265 265 264 250 214 211 211 212 213 215 219
174 165 167 176 159 159 164 178 211 204 129 145 170 149 111 79 41 329 289 290 322 297 273 258 249 252 255 259 258 257 255 252 254 253 250 245 240 232 217 217 217 216 217
150 145 148 138 133 138 141 159 220 98 99 185 148 95 88 55 1 322 315 306 311 295 289 299 320 309 292 280 271 253 240 240 243 248 242 238 234 233 228 214 215 215 216
110 113 123 120 115 127 142 161 175 137 171 189 116 103 93 52 15 22 311 334 344 312 310 329 328 312 291 273 277 279 258 244 239 241 243 240 235 235 232 226 211 217 218
81 90 110 114 115 127 141 169 164 156 192 149 128 109 102 82 32 335 295 336 311 306 334 320 311 309 301 291 288 286 271 252 240 232 231 234 234 233 233 226 212 204 208
62 57 72 84 108 125 111 106 83 94 226 234 86 129 152 157 102 288 17 330 320 333 301 288 307 303 300 305 303 301 294 283 265 254 230 226 231 229 230 230 218 209 207
59 66 71 76 78 60 91 179 182 85 307 265 229 184 153 146 204 249 281 281 303 295 301 335 303 294 304 308 294 288 295 293 314 302 300 275 246 229 226 227 220 214 215
38 36 36 88 85 58 28 305 299 269 261 252 220 200 149 192 214 213 226 246 265 284 295 289 328 336 306 295 295 285 276 289 296 299 299 297 287 264 245 234 231 221 217
38 34 18 33 40 25 350 316 312 295 290 289 287 233 175 231 216 207 209 214 238 258 271 290 295 283 283 284 292 297 296 294 277 273 285 292 296 290 272 247 230 221 214
43 36 31 28 31 23 11 351 332 310 304 305 311 308 283 258 234 213 203 195 219 250 272 280 279 279 274 276 278 279 279 279 281 276 278 285 287 291 301 309 288 233 134